Home > Weather > Nelson > Past weeks

Flag for Canada Weather for the Past 2 Weeks in Nelson, British Columbia, Canada

Now
42 °F

Quite cool.


Feels Like: 36 °F
Forecast: 36 / 45 °F
Wind: 9 mph from Northwest

Location: Nelson

Current Time: Feb 14, 2016 at 3:23:55 PM

Latest Report: Feb 14, 2016 at 2:00 PM


Visibility: N/A

Pressure: 30.08 "Hg (28.09 "Hg at 560m altitude)

Humidity: 79%

Dew point: 36 °F

Location of NelsonLocation

Historic Weather in Nelson — Graph

°F

Nelson Temperature Yesterday

Maximum temperature yesterday: 45 °F (at 2:00 PM)
Minimum temperature yesterday: 37 °F (at 11:00 PM)
Average temperature yesterday: 40 °F

High & Low Weather Summary for the Past Weeks

 TemperatureHumidityPressure
High49 °F (Feb 6, 1:00 PM)100% (Feb 11, 9:00 AM)30.75 "Hg (Feb 11, 9:00 AM)
Low25 °F (Feb 3, 8:00 AM)33% (Feb 6, 2:00 PM)29.85 "Hg (Jan 30, 2:00 PM)
Average35 °F82%30.29 "Hg
* Reported Jan 30 2:00 PM — Feb 14 2:00 PM, Nelson, Weather by CustomWeather, © 2016

Note: Actual official high and low records may vary slightly from our data, if they occured in-between our weather recording intervals... More about our weather records

Advertising

Nelson Weather History for the Previous 24 Hours

 ConditionsComfort  
Time TempWeatherWind HumidityBarometerVisibility
2:00 PM
Sun, Feb 14
42 °FQuite cool.9 mph79%30.08 "HgN/A
1:00 PM42 °FQuite cool.10 mph76%30.10 "HgN/A
12:00 PM42 °FQuite cool.13 mph78%30.13 "HgN/A
11:00 AM41 °FQuite cool.13 mph76%30.14 "HgN/A
10:00 AM40 °FQuite cool.10 mph81%30.12 "HgN/A
9:00 AM39 °FChilly.12 mph86%30.12 "HgN/A
8:00 AM39 °FChilly.12 mph82%30.10 "HgN/A
7:00 AM36 °FChilly.6 mph90%30.09 "HgN/A
6:00 AM37 °FChilly.5 mph88%30.06 "HgN/A
5:00 AM38 °FChilly.9 mph85%30.04 "HgN/A
4:00 AM37 °FChilly.8 mph92%30.03 "HgN/A
3:00 AM38 °FChilly.9 mph87%30.03 "HgN/A
2:00 AM37 °FChilly.5 mph91%30.04 "HgN/A
1:00 AM37 °FChilly.9 mph87%30.03 "HgN/A
12:00 AM37 °FChilly.8 mph92%30.02 "HgN/A
11:00 PM
Sat, Feb 13
37 °FChilly.13 mph88%30.04 "HgN/A
10:00 PM38 °FChilly.9 mph86%30.06 "HgN/A
9:00 PM38 °FChilly.10 mph86%30.08 "HgN/A
8:00 PM39 °FChilly.12 mph88%30.10 "HgN/A
7:00 PM39 °FChilly.13 mph87%30.10 "HgN/A
6:00 PM40 °FChilly.6 mph92%30.11 "HgN/A
5:00 PM40 °FQuite cool.5 mph91%30.11 "HgN/A
4:00 PM42 °FQuite cool.2 mph81%30.13 "HgN/A
3:00 PM44 °FQuite cool.3 mph79%30.14 "HgN/A
Weather by CustomWeather, © 2016

See weather overviewHow to use our weather pages